Time,TemperatureF,DewpointF,PressureIn,WindDirection,WindDirectionDegrees,WindSpeedMPH,WindSpeedGustMPH,Humidity,HourlyPrecipIn,Conditions,Clouds,dailyrainin,SolarRadiationWatts/m^2,SoftwareType,DateUTC
2013-07-03 00:04:00,57.0,35.0,-100.00,North,2,0.0,0.0,43,0.00,,,0.00,0.000000,,2013-07-03 07:04:00,
2013-07-03 00:12:00,57.0,35.0,-100.00,North,2,0.0,0.0,43,0.00,,,0.00,0.000000,,2013-07-03 07:12:00,
2013-07-03 00:24:00,57.0,35.0,-100.00,North,2,0.0,0.0,43,0.00,,,0.00,0.000000,,2013-07-03 07:24:00,
2013-07-03 00:34:00,57.0,35.0,-100.00,North,2,0.0,0.0,43,0.00,,,0.00,0.000000,,2013-07-03 07:34:00,
2013-07-03 00:35:00,57.0,38.0,-100.00,North,11,0.0,0.0,49,-99.99,,,0.00,0.000000,,2013-07-03 07:35:00,
2013-07-03 01:14:00,57.0,38.0,-100.00,North,11,0.0,0.0,49,-99.99,,,0.00,0.000000,,2013-07-03 08:14:00,
2013-07-03 01:24:00,57.0,38.0,-100.00,North,11,0.0,0.0,49,-99.99,,,0.00,0.000000,,2013-07-03 08:24:00,
2013-07-03 02:02:00,58.0,39.0,-100.00,North,2,0.0,0.0,50,0.00,,,0.00,0.000000,,2013-07-03 09:02:00,
2013-07-03 02:14:00,58.0,39.0,-100.00,North,2,0.0,0.0,50,0.00,,,0.00,0.000000,,2013-07-03 09:14:00,
2013-07-03 02:24:00,58.0,39.0,-100.00,North,2,0.0,0.0,50,0.00,,,0.00,0.000000,,2013-07-03 09:24:00,
2013-07-03 02:34:00,58.0,39.0,-100.00,North,2,0.0,0.0,50,0.00,,,0.00,0.000000,,2013-07-03 09:34:00,
2013-07-03 02:35:00,59.0,40.0,-100.00,North,3,0.0,0.0,50,0.00,,,0.00,0.000000,,2013-07-03 09:35:00,
2013-07-03 03:14:00,59.0,40.0,-100.00,North,3,0.0,0.0,50,0.00,,,0.00,0.000000,,2013-07-03 10:14:00,
2013-07-03 03:24:00,59.0,40.0,-100.00,North,3,0.0,0.0,50,0.00,,,0.00,0.000000,,2013-07-03 10:24:00,
2013-07-03 04:13:00,62.0,41.0,-100.00,NNW,341,0.0,0.0,46,0.00,,,0.00,0.000000,,2013-07-03 11:13:00,
2013-07-03 04:23:00,62.0,41.0,-100.00,NNW,341,0.0,0.0,46,0.00,,,0.00,0.000000,,2013-07-03 11:23:00,
2013-07-03 04:34:00,62.0,41.0,-100.00,NNW,341,0.0,0.0,46,0.00,,,0.00,0.000000,,2013-07-03 11:34:00,
2013-07-03 04:35:00,60.0,39.0,-100.00,North,3,0.0,0.0,45,0.00,,,0.00,0.000000,,2013-07-03 11:35:00,
2013-07-03 05:05:00,60.0,39.0,-100.00,North,3,0.0,0.0,45,0.00,,,0.00,0.000000,,2013-07-03 12:05:00,
2013-07-03 05:13:00,60.0,39.0,-100.00,North,3,0.0,0.0,45,0.00,,,0.00,0.000000,,2013-07-03 12:13:00,
2013-07-03 05:22:00,60.0,39.0,-100.00,North,3,0.0,0.0,45,0.00,,,0.00,0.000000,,2013-07-03 12:22:00,
2013-07-03 06:03:00,61.0,39.0,-100.00,West,275,0.0,0.0,44,0.00,,,0.00,0.000000,,2013-07-03 13:03:00,
2013-07-03 06:24:00,61.0,39.0,-100.00,West,275,0.0,0.0,44,0.00,,,0.00,0.000000,,2013-07-03 13:24:00,
2013-07-03 06:34:00,61.0,39.0,-100.00,West,275,0.0,0.0,44,0.00,,,0.00,0.000000,,2013-07-03 13:34:00,
2013-07-03 07:06:00,61.0,38.0,-100.00,SSE,156,0.0,0.0,42,0.00,,,0.00,14.000000,,2013-07-03 14:06:00,
2013-07-03 07:14:00,61.0,38.0,-100.00,SSE,156,0.0,0.0,42,0.00,,,0.00,14.000000,,2013-07-03 14:14:00,
2013-07-03 07:23:00,61.0,38.0,-100.00,SSE,156,0.0,0.0,42,0.00,,,0.00,14.000000,,2013-07-03 14:23:00,
2013-07-03 07:34:00,61.0,38.0,-100.00,SSE,156,0.0,0.0,42,0.00,,,0.00,14.000000,,2013-07-03 14:34:00,
2013-07-03 08:03:00,68.0,43.0,-100.00,NE,46,0.0,0.0,40,0.00,,,0.00,65.000000,,2013-07-03 15:03:00,
2013-07-03 08:14:00,68.0,43.0,-100.00,NE,46,0.0,0.0,40,0.00,,,0.00,65.000000,,2013-07-03 15:14:00,
2013-07-03 08:23:00,68.0,43.0,-100.00,NE,46,0.0,0.0,40,0.00,,,0.00,65.000000,,2013-07-03 15:23:00,
2013-07-03 09:05:00,75.0,42.0,-100.00,NNE,27,0.0,2.0,31,0.00,,,0.00,132.000000,,2013-07-03 16:05:00,
2013-07-03 09:13:00,75.0,42.0,-100.00,NNE,27,0.0,2.0,31,0.00,,,0.00,132.000000,,2013-07-03 16:13:00,
2013-07-03 09:22:00,75.0,42.0,-100.00,NNE,27,0.0,2.0,31,0.00,,,0.00,132.000000,,2013-07-03 16:22:00,
2013-07-03 09:33:00,75.0,42.0,-100.00,NNE,27,0.0,2.0,31,0.00,,,0.00,132.000000,,2013-07-03 16:33:00,
2013-07-03 19:12:00,80.0,39.0,-100.00,SW,217,1.0,7.0,23,-99.99,,,0.00,135.000000,,2013-07-04 02:12:00,
2013-07-03 19:22:00,80.0,39.0,-100.00,SW,217,1.0,7.0,23,-99.99,,,0.00,135.000000,,2013-07-04 02:22:00,
2013-07-03 20:04:00,77.0,42.0,-100.00,SSW,198,2.0,7.0,29,-99.99,,,0.00,44.000000,,2013-07-04 03:04:00,
2013-07-03 20:13:00,77.0,42.0,-100.00,SSW,198,2.0,7.0,29,-99.99,,,0.00,44.000000,,2013-07-04 03:13:00,
2013-07-03 20:25:00,77.0,42.0,-100.00,SSW,198,2.0,7.0,29,-99.99,,,0.00,44.000000,,2013-07-04 03:25:00,
2013-07-03 20:34:00,77.0,42.0,-100.00,SSW,198,2.0,7.0,29,-99.99,,,0.00,44.000000,,2013-07-04 03:34:00,
2013-07-03 21:02:00,71.0,40.0,-100.00,NE,45,0.0,7.0,33,0.00,,,0.00,6.000000,,2013-07-04 04:02:00,
2013-07-03 21:11:00,71.0,40.0,-100.00,NE,45,0.0,7.0,33,0.00,,,0.00,6.000000,,2013-07-04 04:11:00,
2013-07-03 21:22:00,71.0,40.0,-100.00,NE,45,0.0,7.0,33,0.00,,,0.00,6.000000,,2013-07-04 04:22:00,
2013-07-03 21:33:00,71.0,40.0,-100.00,NE,45,0.0,7.0,33,0.00,,,0.00,6.000000,,2013-07-04 04:33:00,
2013-07-03 22:01:00,65.0,39.0,-100.00,North,359,0.0,0.0,38,0.00,,,0.00,0.000000,,2013-07-04 05:01:00,
2013-07-03 22:12:00,65.0,39.0,-100.00,North,359,0.0,0.0,38,0.00,,,0.00,0.000000,,2013-07-04 05:12:00,
2013-07-03 22:22:00,65.0,39.0,-100.00,North,359,0.0,0.0,38,0.00,,,0.00,0.000000,,2013-07-04 05:22:00,
2013-07-03 22:32:00,65.0,39.0,-100.00,North,359,0.0,0.0,38,0.00,,,0.00,0.000000,,2013-07-04 05:32:00,
2013-07-03 23:01:00,61.0,36.0,-100.00,NNW,344,0.0,0.0,39,0.00,,,0.00,0.000000,,2013-07-04 06:01:00,
2013-07-03 23:11:00,61.0,36.0,-100.00,NNW,344,0.0,0.0,39,0.00,,,0.00,0.000000,,2013-07-04 06:11:00,
2013-07-03 23:22:00,61.0,36.0,-100.00,NNW,344,0.0,0.0,39,0.00,,,0.00,0.000000,,2013-07-04 06:22:00,
2013-07-03 23:33:00,61.0,36.0,-100.00,NNW,344,0.0,0.0,39,0.00,,,0.00,0.000000,,2013-07-04 06:33:00,